Location: Unspecified
(40.7945°N, 0.0000°E)
Time: 19:06:24
(UTC+00:00)

Explorer 7 - Pass Details

Date: 21 June 2021
Orbit: 484 x 676 km, 50.3° (Epoch: 28 July)

Event Time Altitude Azimuth Distance (km) Brightness Sun altitude
Rises 22:21:00 0° 280° (W) 3,024 11.1 -21.6°
Reaches altitude 10° 22:23:41 10° 292° (WNW) 2,104 10.4 -21.8°
Maximum altitude 22:27:52 28° 351° (N) 1,251 9.3 -22.1°
Drops below altitude 10° 22:31:56 10° 50° (NE) 2,048 9.9 -22.4°
Sets 22:34:31 0° 62° (ENE) 2,929 10.6 -22.6°
